Theta_e
292 292 291 291 290 290 289 289 289 289 289 288 287 286 285 285 284 284 283 282 281 281 280 280 279 279 278 278 278 278 277 277 277 277 277 278 278 277 278 277 277 277 277 276 276 276 276 276 276 276 276 276 275 275 275 275 276 275 275 276 276 276
291 291 290 289 289 289 289 288 288 288 288 287 287 286 285 284 283 283 281 281 280 280 279 279 278 278 278 277 277 277 277 277 277 277 276 277 277 277 277 276 276 276 275 275 275 275 275 275 275 275 275 274 274 274 274 274 274 274 274 274 275 275
291 290 290 289 289 289 288 288 287 287 287 286 286 285 284 283 282 282 281 280 280 279 278 278 277 277 277 276 276 276 276 276 276 276 277 276 276 276 276 275 275 275 274 274 274 274 274 273 273 274 274 273 273 273 273 273 273 273 273 273 273 274
290 289 288 288 287 287 287 287 287 286 286 286 285 284 283 282 281 281 280 280 279 278 277 277 277 276 276 275 275 275 275 276 276 276 275 275 275 275 275 274 274 274 273 273 273 273 273 273 273 273 273 272 272 272 272 272 272 272 272 272 272 275
289 288 287 286 286 286 286 286 286 285 285 285 284 283 282 282 281 280 279 278 277 277 276 276 275 275 275 274 275 275 275 275 275 275 274 274 274 275 274 273 273 273 272 272 272 272 272 272 272 272 272 271 271 271 271 272 271 271 271 271 274 273
288 287 286 286 285 285 285 285 285 285 284 284 283 282 282 281 280 279 278 277 276 276 275 275 274 274 274 274 274 274 274 274 274 274 274 274 274 273 273 273 272 272 271 271 271 271 271 271 271 271 272 271 271 271 271 271 271 271 271 271 272 271
286 286 286 285 285 285 285 284 284 284 283 283 282 282 280 279 278 277 276 276 275 275 274 274 274 273 273 273 274 273 273 273 274 274 273 273 272 272 272 272 272 271 271 270 270 270 270 271 271 271 271 271 271 271 271 271 271 271 272 271 271 271
286 285 285 285 285 284 284 284 284 283 283 282 282 280 279 277 277 276 275 275 274 274 273 273 273 273 273 273 273 273 273 273 273 273 272 272 271 271 271 270 270 270 270 270 270 270 270 271 271 271 271 271 271 271 271 271 271 272 271 270 270 270
285 285 285 285 284 284 284 283 283 282 281 280 280 279 278 277 276 275 275 274 274 273 273 273 273 273 273 273 273 273 273 272 272 271 271 271 270 269 269 269 269 269 270 270 270 270 270 270 271 271 271 271 271 271 271 270 271 270 270 270 270 270
286 285 285 284 284 284 283 283 282 281 280 279 278 278 276 275 275 274 274 273 273 273 273 273 273 273 272 272 272 272 271 271 271 270 270 269 269 268 268 268 268 269 269 269 270 270 271 271 271 271 271 271 270 270 271 270 270 270 271 271 271 272
286 285 285 284 284 283 282 282 281 281 280 279 277 276 275 275 274 273 273 273 273 273 273 273 272 272 272 271 271 270 270 270 269 269 268 268 268 268 268 268 268 268 269 269 270 270 270 270 270 270 270 270 270 271 271 271 271 271 271 271 271 272
287 285 285 284 283 283 282 281 280 279 278 277 276 275 275 274 273 273 272 272 272 272 272 272 271 271 271 270 270 269 269 268 268 267 267 267 267 267 268 267 268 268 269 269 270 270 269 269 270 270 272 273 272 272 272 272 271 271 271 271 271 272
287 285 284 284 283 283 281 281 280 279 278 276 275 274 274 273 272 272 272 272 272 272 271 271 270 270 269 269 268 268 267 266 266 266 266 266 266 266 267 267 268 268 269 269 269 268 269 269 269 271 274 275 276 273 272 272 272 273 273 273 273 273
286 285 284 284 283 283 281 280 279 278 276 275 274 273 273 272 272 271 271 272 271 271 270 270 269 268 268 267 266 266 265 265 264 264 265 265 265 266 267 267 268 268 268 268 268 268 268 268 270 273 274 275 275 276 273 273 273 273 274 274 274 274
287 286 285 284 283 282 281 280 278 277 276 274 274 272 271 271 271 271 270 270 270 269 269 269 268 267 266 266 265 264 264 263 263 263 263 264 265 266 266 267 267 267 267 267 267 267 268 268 270 272 274 275 276 276 276 274 274 273 273 274 274 274
287 286 285 285 284 283 281 279 278 277 275 274 272 271 271 270 270 270 269 269 268 268 268 267 266 265 265 264 263 263 263 263 263 263 264 264 265 265 265 266 266 266 266 266 266 266 267 267 269 272 274 275 276 277 277 274 274 273 273 273 273 273
287 286 285 284 283 281 279 278 277 275 273 272 271 271 270 269 269 268 268 267 268 267 266 266 265 264 264 263 263 262 262 262 263 263 264 264 265 265 264 265 265 265 265 265 265 265 266 267 271 273 274 275 276 277 277 274 273 273 273 273 273 273
287 286 285 284 281 279 278 277 275 273 272 271 270 269 268 268 267 267 267 267 266 265 265 264 264 263 263 263 262 262 262 262 262 262 263 264 264 265 265 265 265 264 264 265 265 265 265 267 271 273 274 275 276 277 274 273 273 272 272 272 273 273
287 286 284 282 280 277 277 275 273 272 269 268 268 267 267 267 266 266 266 265 265 264 265 264 263 262 261 262 261 261 261 262 262 263 264 263 263 264 263 263 264 264 264 264 264 264 265 266 269 273 274 275 276 275 273 273 272 272 272 272 273 273
286 284 282 279 277 276 274 272 271 269 268 267 267 266 266 265 265 265 264 264 264 264 263 263 262 261 261 261 261 261 261 262 262 263 263 262 262 262 263 263 263 264 264 264 264 265 265 266 270 273 274 275 276 275 272 272 272 271 272 272 273 273
284 281 279 277 274 273 272 271 270 268 267 267 266 266 266 265 265 264 264 264 264 263 262 262 261 261 261 260 261 261 260 261 261 262 262 262 262 262 263 263 263 263 264 264 265 267 267 267 269 272 274 275 276 274 272 272 272 271 271 272 272 273
278 277 276 275 274 272 271 270 269 268 267 266 266 265 265 266 265 265 264 263 262 262 261 261 260 260 259 260 260 260 260 261 261 262 261 261 262 262 263 263 263 262 263 265 266 267 267 268 269 270 274 275 275 276 273 273 271 271 271 272 272 272
278 276 276 275 272 270 270 269 268 267 267 266 265 265 266 266 265 263 263 262 261 260 260 260 259 259 259 260 259 260 260 261 261 261 260 260 261 261 261 261 262 263 264 266 267 267 268 269 269 270 273 274 275 276 275 272 272 272 272 271 271 271
276 275 273 271 269 268 268 268 267 267 266 265 265 266 266 264 263 262 261 261 260 259 259 259 259 259 258 259 259 259 260 261 260 260 260 261 261 260 260 261 262 263 264 266 267 268 268 269 271 269 272 273 275 275 276 273 273 273 272 271 270 270
274 273 271 269 268 268 268 268 267 266 265 265 266 265 263 262 261 260 260 260 259 258 258 258 258 258 258 258 259 258 259 260 259 259 259 259 260 260 260 262 263 264 264 265 267 268 268 268 269 271 270 273 275 276 276 276 275 276 273 270 269 270
273 270 268 267 267 267 268 268 267 266 265 266 265 262 261 260 260 259 259 258 257 257 257 257 257 258 258 258 258 258 258 258 258 259 260 260 260 261 261 263 263 264 264 265 266 267 268 268 268 270 272 272 274 276 276 276 276 276 272 271 270 270
270 268 266 267 266 266 267 268 267 266 266 265 262 261 260 259 258 258 257 257 257 256 257 257 257 257 258 258 258 258 259 258 258 259 260 260 261 262 261 262 263 263 265 265 265 266 267 267 268 268 270 273 274 275 275 275 275 275 275 270 270 271
268 266 265 265 266 266 267 268 268 266 266 262 261 261 259 258 257 257 256 256 256 256 256 256 257 257 258 258 259 258 259 259 259 260 260 261 261 261 261 262 263 264 264 264 265 265 266 266 267 268 269 271 272 273 274 274 274 273 273 273 271 273
266 265 264 264 265 265 266 267 267 267 263 261 261 260 258 257 256 256 255 255 256 256 256 257 258 258 257 257 258 259 259 259 260 260 260 261 261 261 262 263 264 264 264 264 264 265 265 265 266 267 269 270 270 270 271 270 269 271 272 270 270 271
266 264 264 263 264 265 265 265 266 263 261 261 260 257 256 256 257 256 255 256 256 257 257 258 257 258 259 258 258 259 260 260 260 260 261 261 261 261 262 263 264 264 264 264 264 264 265 265 266 267 268 269 270 270 270 269 268 268 268 268 269 269
266 265 264 264 264 264 264 264 262 261 261 260 257 256 256 257 256 255 255 256 257 257 258 258 258 259 259 258 257 258 260 259 260 261 261 263 263 264 264 264 265 265 265 265 264 264 264 265 265 267 272 271 273 270 269 268 268 268 268 270 272 268
266 265 264 264 263 263 263 262 260 260 260 258 257 257 257 256 255 255 256 256 257 258 258 258 257 257 258 258 258 258 258 259 262 262 262 263 266 267 268 268 266 266 266 265 266 266 265 265 267 272 273 273 273 273 273 272 272 272 270 271 271 268
266 265 264 263 263 262 261 260 259 259 258 257 257 257 256 256 256 256 256 256 257 258 258 258 258 258 258 258 258 258 258 259 260 263 265 265 266 266 267 268 268 268 269 267 266 267 270 271 272 272 273 273 272 273 272 272 271 271 272 271 266 263
265 264 264 263 262 261 260 259 258 257 257 256 257 257 256 257 257 256 256 257 258 258 258 259 258 258 257 258 258 258 258 258 259 261 265 266 265 266 266 266 267 268 268 269 268 267 266 269 271 272 272 272 272 272 271 271 270 270 271 270 268 262
265 265 264 262 261 260 259 258 257 256 256 256 256 257 257 258 258 257 257 258 257 257 257 258 257 257 257 257 256 257 257 257 257 258 259 260 263 265 265 265 266 267 267 268 268 269 269 270 271 271 271 271 271 271 270 270 268 269 269 268 262 261
265 264 263 261 260 259 258 257 256 256 256 256 256 257 257 258 258 257 257 257 257 258 258 258 258 257 257 257 257 257 256 255 255 255 254 255 256 258 260 263 264 265 265 266 267 268 269 269 270 270 270 270 270 270 270 268 263 266 267 265 260 261
265 263 261 260 259 258 258 257 256 256 256 256 256 256 257 257 257 257 256 256 258 259 258 258 258 257 256 256 256 256 255 255 254 254 254 254 253 253 254 255 256 259 263 262 263 266 268 268 269 269 269 269 269 269 268 265 260 259 259 260 260 260
263 262 260 259 259 258 257 256 256 256 255 255 255 256 256 256 256 257 257 257 257 258 258 257 257 257 257 257 256 256 255 254 254 254 254 253 253 252 253 254 255 254 258 262 263 265 266 267 268 268 268 268 268 268 265 258 257 257 257 258 259 259
Wind_Speed
12 13 14 14 15 15 15 15 14 14 13 15 16 17 17 15 12 12 10 10 8 7 8 8 7 6 6 5 5 5 6 7 7 7 7 7 7 7 6 6 6 6 6 7 9 9 10 10 11 11 11 12 12 13 13 13 13 13 14 13 13 15
12 13 14 15 16 15 13 15 12 16 15 15 14 13 13 13 13 12 11 10 8 8 7 7 6 6 6 6 6 6 7 6 6 7 7 7 6 7 6 5 5 6 7 8 8 10 10 11 11 11 12 12 12 12 12 12 13 15 15 15 14 13
11 11 10 10 10 10 10 12 15 16 13 15 15 17 15 14 13 12 10 9 9 9 8 7 7 7 6 6 6 7 6 6 6 6 6 6 7 6 6 5 6 7 7 8 9 10 10 11 11 10 11 12 13 12 14 15 14 16 15 14 16 16
8 8 8 9 10 12 14 12 13 14 15 15 14 13 13 14 12 11 10 9 8 9 8 7 6 6 6 6 6 6 6 5 5 5 5 7 6 5 5 6 6 6 8 9 10 10 11 11 12 11 11 12 13 14 11 12 14 15 15 15 17 19
7 9 11 12 14 13 14 13 15 15 16 15 14 14 14 12 12 10 9 9 9 8 7 7 6 6 6 6 6 6 5 5 5 5 5 6 5 4 5 6 7 8 9 10 10 10 11 11 11 11 11 12 13 14 14 13 14 15 16 18 20 19
6 8 11 12 13 14 15 14 14 14 14 14 14 15 14 13 11 10 10 9 8 8 8 7 6 6 6 6 5 5 5 5 5 4 5 5 4 5 5 6 8 8 9 10 11 11 11 11 11 12 12 13 13 14 15 14 15 15 16 18 19 18
10 12 12 12 13 12 13 14 15 15 15 14 14 13 13 12 11 11 10 10 9 9 8 8 7 7 6 6 5 5 5 5 4 4 5 4 5 5 6 7 7 8 9 9 10 11 12 12 12 12 13 12 13 14 15 15 15 17 19 19 18 18
10 10 12 12 13 14 14 14 15 14 14 14 13 13 13 12 10 10 10 9 9 8 8 8 7 7 6 6 5 5 5 4 4 4 4 4 5 6 6 7 7 7 9 10 11 12 12 12 12 13 13 13 14 14 15 15 16 18 18 19 18 17
13 14 13 13 13 14 13 15 15 14 14 14 12 12 12 12 11 10 10 9 9 8 8 8 7 6 6 5 5 3 3 3 4 5 4 4 5 6 7 8 9 8 9 11 11 12 12 13 12 12 13 14 14 15 15 16 18 19 17 18 20 20
13 14 15 14 14 13 13 13 14 15 15 15 13 12 11 10 11 10 10 9 8 8 8 7 7 6 5 4 4 4 3 3 4 4 4 4 5 6 7 8 9 9 9 10 11 11 11 12 12 13 13 13 13 14 17 18 18 18 19 19 19 19
14 15 14 14 14 15 16 13 14 13 12 12 12 12 11 11 11 10 10 9 8 8 8 7 6 5 5 4 4 4 4 4 4 4 4 4 5 6 7 8 9 10 11 11 11 12 11 11 11 10 10 12 16 16 18 19 19 20 20 21 19 21
13 13 14 14 16 17 16 15 15 15 15 14 13 13 12 12 11 11 10 9 9 8 7 7 6 5 5 4 4 4 4 4 4 4 4 5 6 7 7 9 9 10 10 11 11 11 10 10 9 12 19 21 18 19 18 18 19 20 19 19 21 19
11 11 14 16 17 18 17 16 15 14 14 13 13 13 13 11 11 10 10 10 9 8 7 6 6 5 5 4 4 4 4 5 4 3 4 5 6 7 8 8 9 9 9 10 11 11 10 10 10 19 22 25 27 21 19 20 19 18 19 19 18 20
13 15 17 17 17 17 16 16 15 15 14 14 14 13 12 11 11 11 10 9 9 8 8 6 6 5 5 4 4 5 5 4 4 3 4 5 6 7 7 9 9 9 9 9 10 11 11 12 16 22 24 26 27 25 20 18 17 18 17 18 18 18
15 17 16 14 15 16 18 17 15 16 15 15 13 12 12 12 11 10 10 9 8 8 7 6 6 5 5 4 4 4 4 4 3 3 5 6 6 6 8 8 9 9 9 9 10 11 12 13 18 23 26 27 28 28 25 17 19 18 20 18 20 21
11 13 16 17 17 16 15 15 16 13 13 13 13 13 12 12 11 10 9 9 9 8 7 7 6 5 5 4 4 5 5 3 3 4 5 5 6 6 7 8 9 9 9 9 11 12 12 14 18 25 27 27 29 29 25 19 19 19 19 20 20 20
12 12 12 12 14 14 14 13 12 13 12 12 12 10 12 10 10 9 9 9 8 8 7 7 6 6 5 5 5 5 4 2 3 4 5 4 5 6 6 7 8 8 8 10 11 11 13 12 22 26 28 27 28 29 27 18 18 18 19 20 21 21
13 14 14 11 13 13 14 15 14 14 12 10 10 10 9 10 9 9 9 8 8 8 7 7 7 6 6 6 6 5 2 2 4 4 4 5 5 5 6 6 7 8 10 10 11 12 14 14 23 25 26 27 27 30 20 17 18 18 18 20 21 22
11 11 10 12 13 14 15 13 13 12 12 11 9 10 10 9 9 9 9 9 9 8 8 7 7 6 6 6 5 4 2 2 4 4 3 4 5 5 6 6 7 7 9 11 11 12 13 14 19 23 25 26 28 24 16 17 15 17 20 19 21 22
7 9 12 13 13 13 12 13 13 13 12 11 11 10 10 9 9 9 9 9 9 8 8 7 7 7 7 6 5 3 2 3 3 4 3 4 5 5 6 6 7 8 9 11 12 12 14 15 18 23 24 26 27 25 18 16 16 18 16 17 19 18
12 13 13 15 15 12 14 16 15 14 12 12 12 11 10 10 10 10 10 9 9 8 8 7 7 7 6 6 4 3 2 4 4 3 3 4 4 5 5 5 7 9 10 11 12 17 17 15 16 22 23 26 27 23 18 18 17 15 16 18 19 20
14 13 14 17 17 16 18 17 15 13 13 12 12 11 11 11 10 9 8 9 9 8 7 6 7 6 6 5 4 3 3 3 3 3 3 4 4 4 4 5 7 10 11 11 12 12 13 14 15 17 25 26 27 27 20 15 15 18 21 19 19 20
13 18 19 14 16 16 14 15 15 14 12 13 12 11 10 9 9 10 9 9 8 8 7 6 6 6 5 4 4 3 3 3 2 2 3 4 3 4 5 6 8 9 10 11 12 12 12 12 15 17 24 26 27 28 26 17 18 18 19 19 19 19
7 7 8 9 13 12 12 13 18 14 13 12 13 11 10 10 10 10 9 9 9 8 7 7 6 5 4 4 3 3 4 3 2 2 3 3 3 5 6 8 8 9 10 11 11 10 11 13 18 17 22 26 27 28 31 21 19 21 20 20 19 19
13 12 12 10 11 11 12 20 25 17 13 14 14 11 11 10 10 10 9 9 8 7 7 6 7 5 4 3 3 4 3 3 3 3 3 2 3 4 7 8 8 10 11 10 9 9 10 12 13 20 19 24 27 29 29 31 25 31 22 19 20 20
10 11 10 12 9 9 11 24 24 14 14 14 11 11 10 10 10 10 10 8 7 7 6 6 6 5 4 4 3 3 3 1 2 1 0 1 2 3 6 7 8 10 9 10 10 10 10 12 12 16 23 22 29 28 29 30 31 32 22 21 17 17
18 13 13 12 13 10 9 11 20 17 16 12 12 13 12 11 10 10 9 9 8 7 7 6 5 5 4 4 3 3 3 2 1 0 0 1 2 3 6 7 9 9 9 10 11 11 12 12 13 13 16 25 26 29 30 31 33 32 31 21 17 17
17 15 15 13 13 12 11 11 13 26 14 12 10 12 11 12 11 10 10 8 8 8 7 8 6 5 5 3 3 3 2 2 1 1 0 1 2 3 5 8 8 8 9 10 11 12 13 13 13 13 13 15 20 23 28 31 30 31 31 27 21 27
16 15 15 16 14 12 11 10 6 8 12 12 11 11 11 11 11 11 9 9 8 8 9 8 6 6 5 4 3 2 2 2 2 2 1 0 2 4 6 7 8 9 9 10 11 12 12 13 13 13 14 14 15 15 18 20 20 26 26 19 17 18
17 18 15 15 16 13 11 9 12 9 9 11 11 11 11 11 12 10 10 10 8 7 8 6 8 7 5 4 3 3 3 3 3 2 1 0 1 4 6 7 8 9 9 9 10 11 12 12 11 12 15 18 18 17 17 18 18 18 16 17 17 17
18 17 17 13 11 12 11 11 10 10 11 11 11 12 13 11 10 9 10 8 7 7 6 6 6 4 5 4 3 2 2 2 3 2 2 2 2 4 6 7 8 8 8 9 10 11 11 12 12 13 21 20 25 23 20 18 19 18 16 20 28 19
17 16 15 13 14 15 15 16 11 11 10 10 11 12 12 12 10 9 8 7 6 6 6 6 5 5 5 4 3 2 0 4 7 4 2 1 5 8 11 9 7 8 8 8 8 9 10 11 13 25 29 28 28 29 30 28 29 27 23 27 31 19
21 18 25 18 15 13 12 11 11 11 10 11 12 11 12 12 10 8 7 6 5 6 6 5 4 4 4 4 4 3 3 1 2 6 5 2 4 8 10 9 10 13 13 10 7 8 15 18 22 25 26 27 27 28 29 29 30 28 28 29 21 14
20 21 22 15 15 14 12 11 10 11 11 11 10 9 10 10 10 10 8 7 7 7 6 4 5 4 4 3 3 2 2 1 2 3 8 5 5 8 8 9 12 14 14 14 14 12 9 16 21 24 25 26 26 26 28 27 29 28 28 29 23 10
21 14 14 14 14 13 11 12 11 10 12 10 10 10 11 10 8 10 9 8 8 7 6 5 5 4 4 4 4 3 2 2 2 3 3 1 1 4 2 7 13 17 16 16 16 18 18 19 21 25 25 25 26 26 26 27 26 24 26 27 16 13
14 18 16 16 17 15 14 14 13 12 12 11 11 10 10 9 9 10 8 9 9 8 7 5 5 6 5 4 4 4 4 2 2 2 1 5 9 9 5 6 13 17 19 17 18 19 21 21 23 24 24 25 25 26 26 25 18 19 20 17 12 14
25 22 17 18 16 15 15 13 13 13 13 12 12 11 11 11 9 7 10 14 11 7 7 6 6 5 6 5 5 5 4 4 3 3 1 0 2 3 5 7 9 13 16 12 12 18 21 21 23 24 23 24 24 25 26 22 13 15 16 15 12 13
27 23 20 20 15 15 14 12 12 12 13 13 13 12 12 10 9 9 8 8 8 7 6 6 5 6 6 6 5 4 4 4 4 2 2 1 2 3 4 5 5 6 10 13 15 19 20 21 23 22 23 22 23 24 22 14 14 14 15 15 14 15
Wind_Direction
203 200 201 198 197 194 192 186 177 176 175 178 177 174 171 169 169 171 171 172 171 175 180 183 190 198 207 217 223 230 237 240 243 248 255 262 259 259 263 272 284 286 285 283 282 281 278 278 279 280 278 275 273 271 271 270 269 269 270 269 267 272
207 202 198 194 193 188 182 178 171 180 177 172 172 164 163 165 168 168 168 170 167 165 166 178 187 195 206 214 218 229 235 241 246 253 258 260 267 265 270 276 288 290 286 283 285 285 285 283 282 278 277 275 271 272 271 271 271 272 271 272 268 271
204 204 199 194 187 181 173 175 179 180 172 175 172 168 167 168 168 167 168 163 167 164 172 179 183 196 204 213 222 232 240 244 248 253 259 272 266 273 284 288 295 292 285 285 283 281 283 283 280 277 274 272 272 270 271 275 274 273 272 272 274 273
200 193 186 179 180 184 183 179 174 177 177 178 170 167 168 167 166 169 160 160 161 167 173 180 185 193 205 212 219 232 235 243 247 251 263 265 269 281 294 293 295 289 287 286 284 281 281 279 277 277 275 275 275 274 274 275 277 276 274 274 276 281
194 190 187 188 190 185 182 176 181 181 179 173 172 169 170 164 160 158 156 157 160 168 171 176 186 192 203 214 224 226 233 242 250 252 263 270 280 292 292 291 292 290 286 285 285 282 281 278 280 279 276 274 274 276 277 278 280 278 275 277 281 281
185 183 188 191 190 184 184 182 180 176 177 175 170 170 160 157 153 154 154 157 161 165 171 180 185 194 204 213 219 222 232 244 254 263 266 277 288 292 293 291 287 289 287 286 285 281 283 282 282 284 280 278 279 280 281 280 278 275 275 279 283 281
197 200 196 192 191 187 184 182 183 179 177 172 170 164 156 152 152 154 157 161 161 167 175 182 185 193 201 209 217 225 238 247 257 264 271 279 287 289 293 290 288 287 288 285 285 285 283 284 284 284 284 282 282 280 282 280 280 280 281 281 282 275
203 199 195 193 192 188 184 183 181 178 173 171 164 154 154 154 152 155 155 158 164 170 177 181 186 192 198 206 217 227 237 249 261 270 276 280 284 293 288 288 289 286 285 285 284 285 286 286 284 286 286 287 286 285 283 282 282 286 283 277 273 271
208 206 198 196 190 186 184 182 178 173 168 163 159 154 152 153 151 153 154 159 167 171 178 179 184 188 193 201 214 221 238 251 263 269 274 284 288 289 287 287 286 285 285 285 284 282 286 286 286 287 289 291 291 289 286 287 290 287 281 279 274 270
209 206 202 193 192 183 182 181 176 172 168 163 158 155 151 149 150 151 156 161 169 174 173 178 182 185 190 197 206 221 235 251 254 263 273 275 281 281 282 285 286 286 282 283 283 284 285 287 288 288 288 291 293 294 294 291 287 284 283 281 279 275
207 203 196 194 184 184 180 174 171 165 161 156 155 153 150 147 148 151 158 165 171 174 173 172 173 174 184 195 205 222 233 243 254 258 267 274 277 278 279 281 282 283 281 280 282 286 287 287 286 288 289 294 296 295 292 291 287 286 287 284 278 276
209 196 191 189 188 184 179 177 174 171 164 160 156 152 151 149 152 155 160 167 173 169 167 169 166 175 182 190 208 216 230 239 246 254 265 272 274 278 282 281 279 279 282 285 287 289 289 286 282 281 286 293 295 297 297 294 291 287 278 277 273 270
204 190 190 195 189 184 182 177 173 165 158 155 154 153 153 152 151 156 164 171 168 163 160 165 170 177 184 195 203 215 230 241 244 261 273 275 277 277 280 278 280 281 284 288 290 292 289 287 284 287 292 296 299 299 297 295 291 284 285 278 278 278
200 196 198 196 189 182 175 171 168 162 162 157 156 151 150 151 152 159 166 163 158 161 163 166 167 175 189 191 208 221 230 241 249 262 271 276 276 276 277 279 281 286 290 292 293 291 291 290 288 292 298 300 300 300 299 295 292 293 287 289 283 285
200 198 199 190 184 182 181 168 158 168 162 157 153 143 150 151 155 159 158 156 157 157 162 165 168 179 187 197 208 227 230 234 248 263 267 267 272 279 277 279 287 287 291 291 293 294 294 292 292 297 301 303 303 303 303 297 296 293 295 291 292 289
198 198 193 188 185 178 166 162 163 157 146 142 139 147 151 151 154 155 152 153 159 161 159 167 166 181 186 191 211 224 228 228 250 262 266 270 273 272 276 279 282 287 293 297 297 296 296 295 294 299 303 304 305 306 305 302 299 297 294 294 292 291
198 192 184 176 160 151 145 149 145 134 135 141 144 149 145 147 147 150 154 157 159 158 161 166 171 179 184 197 209 218 220 223 256 259 262 267 266 271 276 281 287 291 295 296 298 297 298 293 298 302 303 305 306 307 309 304 300 298 296 295 292 289
192 188 187 159 144 152 155 156 147 140 141 138 140 140 140 142 147 151 154 157 161 164 167 167 172 176 186 199 207 208 206 219 244 252 263 268 274 274 277 281 285 291 297 297 299 297 293 294 299 302 304 307 309 310 309 304 300 298 294 295 294 290
186 176 147 149 154 150 158 145 137 133 132 138 138 135 141 148 153 160 160 162 164 167 167 167 169 177 189 199 202 191 182 226 246 253 253 268 275 279 282 285 288 289 294 297 288 290 289 289 296 302 305 307 311 312 308 305 300 299 296 290 293 293
142 137 146 146 151 153 138 134 135 134 138 142 145 148 153 159 164 161 161 165 165 164 160 167 171 179 190 193 192 164 179 235 252 241 251 264 279 284 285 292 293 292 293 288 285 282 287 292 299 305 307 310 311 314 312 306 304 296 288 289 289 291
154 146 142 149 150 149 139 141 138 140 146 149 153 156 156 168 164 166 168 163 156 156 159 167 174 183 187 187 173 156 201 236 236 245 258 259 271 275 282 294 298 300 296 281 276 285 294 294 299 305 308 311 313 315 311 310 304 293 294 298 298 296
121 146 156 165 163 146 147 146 148 146 146 152 152 159 169 170 167 156 146 144 148 152 157 168 177 185 188 178 153 164 213 237 239 243 265 278 268 279 293 299 296 294 292 291 292 294 294 298 300 305 311 315 317 318 316 310 308 305 305 305 302 302
165 170 173 161 145 148 148 148 145 151 148 149 158 172 168 150 139 142 144 142 144 150 160 167 180 190 188 168 151 169 211 227 235 264 271 272 279 291 303 298 298 296 293 297 298 295 296 300 306 309 314 317 319 320 322 317 313 310 308 307 307 304
123 113 112 130 144 146 149 148 145 143 148 153 168 164 139 134 141 140 140 144 147 154 162 169 177 188 178 164 150 180 211 208 218 256 259 279 300 307 310 309 300 303 302 303 302 299 303 306 308 312 314 315 316 318 319 318 315 317 315 312 307 304
162 162 149 145 146 152 158 144 141 146 151 163 162 140 137 139 137 139 140 141 145 153 162 168 178 178 168 155 162 191 217 200 202 235 240 263 305 308 320 316 310 310 307 305 308 310 309 312 310 313 315 317 323 324 325 323 321 321 320 313 307 307
143 136 139 151 153 154 164 160 147 152 157 159 133 132 131 132 136 138 136 139 143 150 162 172 177 170 157 151 167 195 199 194 207 231 230 332 321 327 325 320 315 313 306 314 315 314 317 317 314 314 322 324 325 326 325 326 325 325 322 316 309 307
158 147 148 160 163 167 167 173 148 154 152 144 136 143 141 138 137 136 136 141 146 155 160 167 167 162 147 156 178 195 180 189 187 165 91 333 329 336 325 317 312 307 317 319 320 319 320 320 317 314 312 319 325 328 328 328 328 327 326 319 311 306
122 139 151 161 168 167 171 179 161 152 146 131 139 140 136 135 135 135 136 139 148 156 159 158 155 151 143 168 181 193 176 149 161 114 18 336 336 336 322 309 300 314 320 318 320 321 319 321 320 319 317 315 327 330 331 332 331 328 326 322 316 316
152 160 157 160 172 167 169 160 169 127 126 140 140 137 133 131 132 132 137 146 148 156 166 160 156 152 155 174 185 183 165 161 153 157 191 221 343 328 310 299 316 321 321 322 321 320 320 321 321 324 327 331 332 333 334 336 333 330 328 327 324 326
164 164 162 164 168 165 156 152 146 132 130 135 135 130 132 134 143 141 148 150 151 161 165 155 150 150 146 164 180 165 163 161 169 173 184 113 334 308 306 317 321 323 324 321 320 318 320 319 324 331 335 339 339 337 337 337 336 334 332 331 331 332
168 167 163 158 149 145 149 148 136 141 146 139 134 141 137 135 131 127 136 145 149 150 150 145 154 147 141 150 155 165 170 167 173 182 192 222 233 284 308 313 318 322 323 323 321 324 321 323 327 331 337 338 339 341 341 340 339 336 336 337 339 331
157 158 159 148 151 156 154 147 143 145 144 137 145 146 133 132 132 137 145 156 153 142 144 142 142 142 142 143 138 140 216 236 221 219 214 320 335 329 325 323 322 326 328 322 320 326 324 325 327 333 338 340 342 343 345 343 340 340 342 343 342 339
165 154 156 164 162 156 146 139 141 141 138 147 154 150 136 134 135 136 140 153 154 151 140 141 134 139 132 134 138 145 148 116 270 236 224 232 327 331 331 337 336 337 336 334 327 326 330 330 336 340 340 342 343 345 346 347 344 343 347 348 346 345
173 178 177 159 153 148 144 135 142 141 144 150 152 149 146 148 142 143 156 150 143 141 141 130 130 130 122 113 97 83 68 113 148 179 189 167 2 339 340 343 345 346 347 345 346 344 335 339 344 344 343 344 345 347 347 348 346 346 348 350 349 348
185 169 141 147 144 137 137 138 138 138 144 147 150 153 151 156 142 137 144 144 139 139 140 140 137 134 130 127 117 104 88 66 20 5 335 241 23 354 326 353 353 352 353 349 350 352 350 348 347 347 346 347 348 348 348 346 341 343 349 348 352 360
125 135 148 144 145 141 145 146 147 150 149 149 154 160 159 151 146 143 146 146 146 143 146 146 144 139 134 126 120 123 110 95 95 69 30 337 332 346 347 347 359 357 350 347 351 350 350 350 350 349 348 349 348 348 348 347 338 338 349 360 357 355
130 136 143 141 136 145 149 148 153 152 149 152 151 146 144 139 138 132 137 140 142 137 141 142 141 137 135 136 135 131 128 130 125 123 118 346 310 315 311 314 321 336 343 344 347 348 351 350 350 350 349 348 349 351 349 347 347 348 346 352 352 354
150 145 146 150 152 153 147 147 152 149 148 148 149 148 145 145 146 140 141 145 140 134 135 136 140 141 143 140 133 126 128 131 137 134 149 197 239 259 283 284 299 300 305 339 354 353 351 348 347 347 348 350 352 354 355 357 354 347 349 345 343 349